Weather History for Milwaukee Timmerman, WI

Change the Weather History Date:

Wednesday, February 20, 2013

  Actual Average Record
Temperature  
Mean Temperature 12 °F -  
Max Temperature 19 °F 36 °F 57 °F (1983)
Min Temperature 6 °F 20 °F -10 °F (1966)
Degree Days  
Heating Degree Days 52    
Moisture  
Dew Point 4 °F    
Average Humidity 69    
Maximum Humidity 79    
Minimum Humidity 58    
Precipitation  
Precipitation 0.00 in - - ()
Sea Level Pressure  
Sea Level Pressure 30.27 in    
Wind  
Wind Speed 11 mph (WNW)    
Max Wind Speed 16 mph    
Max Gust Speed 22 mph    
Visibility 10 miles    
Events      
Averages and records for this station are not official NWS values.
T = Trace of Precipitation, MM = Missing Value Source: NWS Daily Summary

Daily Weather History Graph

Daily Weather History Graph

Search for Another Location

Airport:

Trip Planner

Search our weather history database for the weather conditions in past years. The results will help you decide how hot, cold, wet, or windy it might be!

Date:

Astronomy

Feb. 20, 2013 Rise Set
Actual Time 6:42 AM CST 5:30 PM CST
Civil Twilight 6:13 AM CST 5:59 PM CST
Nautical Twilight 5:40 AM CST 6:32 PM CST
Astronomical Twilight 5:07 AM CST 7:05 PM CST
Moon 12:46 PM CST (2/20) 3:06 AM CST (2/20)
Length of Visible Light 11h 45m
Length of Day
10h 48m
Waxing Gibbous, 76% of the Moon is Illuminated
Feb 20
Waxing Gibbous
Feb 25
Full
Mar 4
Last Quarter
Mar 11
New
Mar 19
First Quarter

Hourly Weather History & Observations

Time (CST) Temp. Windchill Dew Point Humidity Pressure Visibility Wind Dir Wind Speed Gust Speed Precip Events Conditions
12:15 AM 8.6 °F -8.9 °F -0.4 °F 67% 30.13 in 10.0 mi WNW 16.1 mph 21.9 mph N/A   Clear
12:35 AM 8.6 °F -6.3 °F -0.4 °F 67% 30.14 in 10.0 mi WNW 11.5 mph 18.4 mph N/A   Clear
12:55 AM 8.6 °F -6.3 °F -0.4 °F 67% 30.15 in 10.0 mi WNW 11.5 mph 19.6 mph N/A   Clear
1:15 AM 8.6 °F -6.3 °F -0.4 °F 67% 30.16 in 10.0 mi West 11.5 mph 17.3 mph N/A   Clear
1:35 AM 8.6 °F -6.3 °F -0.4 °F 67% 30.16 in 10.0 mi WNW 11.5 mph 18.4 mph N/A   Clear
1:55 AM 8.6 °F -7.7 °F -0.4 °F 67% 30.18 in 10.0 mi WNW 13.8 mph 18.4 mph N/A   Clear
2:15 AM 8.6 °F -7.0 °F -0.4 °F 67% 30.18 in 10.0 mi West 12.7 mph 18.4 mph N/A   Clear
2:35 AM 8.6 °F -7.7 °F -0.4 °F 67% 30.19 in 10.0 mi WNW 13.8 mph 17.3 mph N/A   Clear
2:55 AM 8.6 °F -7.0 °F -0.4 °F 67% 30.20 in 10.0 mi WNW 12.7 mph 19.6 mph N/A   Clear
3:15 AM 8.6 °F -5.5 °F -0.4 °F 67% 30.20 in 10.0 mi West 10.4 mph - N/A   Clear
3:35 AM 6.8 °F -9.3 °F -0.4 °F 72% 30.21 in 10.0 mi WNW 12.7 mph - N/A   Clear
3:55 AM 6.8 °F -10.0 °F -0.4 °F 72% 30.21 in 10.0 mi WNW 13.8 mph 19.6 mph N/A   Clear
4:15 AM 6.8 °F -9.3 °F -0.4 °F 72% 30.21 in 10.0 mi WNW 12.7 mph 19.6 mph N/A   Clear
4:35 AM 6.8 °F -8.6 °F -0.4 °F 72% 30.22 in 10.0 mi WNW 11.5 mph - N/A   Clear
4:55 AM 6.8 °F -7.8 °F -0.4 °F 72% 30.23 in 10.0 mi West 10.4 mph - N/A   Clear
5:15 AM 6.8 °F -9.3 °F -0.4 °F 72% 30.24 in 10.0 mi West 12.7 mph - N/A   Clear
5:35 AM 6.8 °F -9.3 °F -0.4 °F 72% 30.24 in 10.0 mi WNW 12.7 mph 20.7 mph N/A   Clear
5:55 AM 6.8 °F -10.0 °F -0.4 °F 72% 30.24 in 10.0 mi WNW 13.8 mph 18.4 mph N/A   Clear
6:45 AM 6.8 °F -8.6 °F -0.4 °F 72% 30.26 in 10.0 mi WNW 11.5 mph - N/A   Clear
7:45 AM 6.8 °F -8.6 °F -0.4 °F 72% 30.28 in 10.0 mi WNW 11.5 mph - N/A   Clear
8:45 AM 10.4 °F -4.1 °F 1.4 °F 67% 30.27 in 10.0 mi NNW 11.5 mph 19.6 mph N/A   Clear
9:45 AM 12.2 °F -3.1 °F 3.2 °F 67% 30.29 in 10.0 mi NW 13.8 mph - N/A   Clear
10:45 AM 15.8 °F 1.4 °F 5.0 °F 62% 30.29 in 10.0 mi NW 13.8 mph 20.7 mph N/A   Clear
11:45 AM 17.6 °F 5.0 °F 6.8 °F 63% 30.31 in 10.0 mi NW 11.5 mph 18.4 mph N/A   Clear
12:45 PM 17.6 °F 5.0 °F 6.8 °F 63% 30.30 in 10.0 mi NNW 11.5 mph 17.3 mph N/A   Clear
2:45 PM 19.4 °F 7.2 °F 8.6 °F 63% 30.34 in 10.0 mi NW 11.5 mph - N/A   Clear
3:45 PM 19.4 °F 7.2 °F 6.8 °F 58% 30.33 in 10.0 mi WNW 11.5 mph - N/A   Clear
5:45 PM 19.4 °F 10.4 °F 8.6 °F 63% 30.33 in 10.0 mi WNW 6.9 mph - N/A   Clear
6:45 PM 17.6 °F 12.3 °F 8.6 °F 68% 30.33 in 10.0 mi NW 3.5 mph - N/A   Clear
7:45 PM 17.6 °F 10.7 °F 8.6 °F 68% 30.33 in 10.0 mi WSW 4.6 mph - N/A   Clear
8:15 PM 17.6 °F 12.3 °F 8.6 °F 68% 30.33 in 10.0 mi West 3.5 mph - N/A   Clear
8:35 PM 17.6 °F 12.3 °F 8.6 °F 68% 30.33 in 10.0 mi West 3.5 mph - N/A   Clear
8:55 PM 17.6 °F 12.3 °F 8.6 °F 68% 30.33 in 10.0 mi West 3.5 mph - N/A   Clear
9:15 PM 15.8 °F - 8.6 °F 73% 30.32 in 10.0 mi Calm Calm - N/A   Clear
9:35 PM 14.0 °F - 8.6 °F 79% 30.33 in 10.0 mi Calm Calm - N/A   Clear
9:55 PM 15.8 °F - 10.4 °F 79% 30.33 in 10.0 mi Calm Calm - N/A   Clear
10:15 PM 15.8 °F 10.2 °F 8.6 °F 73% 30.34 in 10.0 mi NNW 3.5 mph - N/A   Clear
10:35 PM 15.8 °F 7.2 °F 8.6 °F 73% 30.34 in 10.0 mi North 5.8 mph - N/A   Clear
10:55 PM 17.6 °F 8.2 °F 8.6 °F 68% 30.34 in 10.0 mi North 6.9 mph - N/A   Clear
11:15 PM 17.6 °F 7.3 °F 8.6 °F 68% 30.34 in 10.0 mi North 8.1 mph - N/A   Clear
11:35 PM 17.6 °F 8.2 °F 8.6 °F 68% 30.35 in 10.0 mi North 6.9 mph - N/A   Clear
11:55 PM 17.6 °F 6.4 °F 8.6 °F 68% 30.36 in 10.0 mi North 9.2 mph - N/A   Clear